Location: Village de las Huertas
(35.3014°N, 106.4095°W)
Time: 09:26:39
(UTC+00:00)

CZ-4B R/B - Pass Details

Date: 29 October 2020
Orbit: 489 x 649 km, 97.9° (Epoch: 04 December)

Event Time Altitude Azimuth Distance (km) Brightness Sun altitude
Rises 12:25:58 0° 8° (N) 2,781 6.4 -12.6°
Reaches altitude 10° 12:28:05 10° 5° (N) 1,905 5.5 -12.1°
Maximum altitude 12:32:10 62° 285° (WNW) 678 3.0 -11.3°
Drops below altitude 10° 12:36:26 10° 204° (SSW) 1,981 5.5 -10.5°
Sets 12:38:40 0° 201° (SSW) 2,902 6.4 -10.0°
